When you browse on this site, cookies collect data to enhance your experience and personalize the content and advertising you see.
Visit our Privacy Policy to learn more. By continuing to use the site, you agree to this use of cookies and data.
  • In Romania
  • List of Countries
  • For 7 days
  • Water Temperature
  • Satellite Maps
  • Weather Map
  • Weather Widgets
  • user-avatar
    Login

    Hourly Weather Lorient

    Today, 19 April, Friday

    Time Temperature Precipitation Wind Pressure Humidity
    00:00 +14°C° 0 mm 4 mps 763 mmHg 93%
    01:00 +14°C° 0 mm 4 mps 763 mmHg 92%
    02:00 +13°C° 0 mm 4 mps 763 mmHg 92%
    03:00 +13°C° 0 mm 4 mps 763 mmHg 91%
    04:00 +13°C° 0 mm 4 mps 764 mmHg 91%
    05:00 +12°C° 0 mm 4 mps 764 mmHg 92%
    06:00 +12°C° 0 mm 4 mps 764 mmHg 92%
    07:00 +14°C° 0 mm 4 mps 765 mmHg 88%
    08:00 +17°C° 0 mm 4 mps 765 mmHg 84%
    09:00 +18°C° 0 mm 4 mps 766 mmHg 80%
    10:00 +20°C° 0 mm 3 mps 766 mmHg 76%
    11:00 +21°C° 0 mm 3 mps 766 mmHg 71%
    12:00 +22°C° 0 mm 3 mps 766 mmHg 67%
    13:00 +24°C° 0 mm 3 mps 766 mmHg 66%
    14:00 +24°C° 0 mm 2 mps 766 mmHg 65%
    15:00 +24°C° 0 mm 2 mps 766 mmHg 64%
    16:00 +23°C° 0 mm 2 mps 766 mmHg 69%
    17:00 +23°C° 0 mm 2 mps 767 mmHg 74%
    18:00 +21°C° 0 mm 2 mps 767 mmHg 79%
    19:00 +19°C° 0 mm 3 mps 767 mmHg 81%
    20:00 +17°C° 0 mm 3 mps 768 mmHg 84%
    21:00 +14°C° 0 mm 4 mps 768 mmHg 86%
    22:00 +14°C° 0 mm 4 mps 768 mmHg 88%
    23:00 +13°C° 0 mm 4 mps 769 mmHg 90%

    Tomorrow, 20 April, Saturday

    Time Temperature Precipitation Wind Pressure Humidity
    00:00 +13°C° 0 mm 4 mps 769 mmHg 92%
    01:00 +13°C° 0 mm 4 mps 768 mmHg 92%
    02:00 +12°C° 0 mm 4 mps 768 mmHg 92%
    03:00 +12°C° 0 mm 4 mps 768 mmHg 92%
    04:00 +12°C° 0 mm 5 mps 768 mmHg 91%
    05:00 +12°C° 0 mm 5 mps 768 mmHg 90%
    06:00 +12°C° 0 mm 5 mps 768 mmHg 89%
    07:00 +14°C° 0 mm 5 mps 768 mmHg 83%
    08:00 +15°C° 0 mm 5 mps 768 mmHg 77%
    09:00 +17°C° 0 mm 6 mps 768 mmHg 71%
    10:00 +20°C° 0 mm 6 mps 768 mmHg 67%
    11:00 +21°C° 0 mm 5 mps 768 mmHg 64%
    12:00 +22°C° 0 mm 5 mps 767 mmHg 60%
    13:00 +22°C° 0 mm 5 mps 767 mmHg 61%
    14:00 +22°C° 0 mm 5 mps 767 mmHg 62%
    15:00 +22°C° 0 mm 5 mps 766 mmHg 63%
    16:00 +21°C° 0 mm 5 mps 766 mmHg 68%
    17:00 +20°C° 0 mm 5 mps 766 mmHg 73%
    18:00 +19°C° 0 mm 5 mps 766 mmHg 78%
    19:00 +16°C° 0 mm 5 mps 766 mmHg 81%
    20:00 +15°C° 0 mm 5 mps 766 mmHg 84%
    21:00 +14°C° 0 mm 5 mps 766 mmHg 87%
    22:00 +13°C° 0 mm 5 mps 766 mmHg 88%
    23:00 +13°C° 0 mm 5 mps 766 mmHg 88%

    Day after tomorrow, 21 April, Sunday

    Time Temperature Precipitation Wind Pressure Humidity
    00:00 +13°C° 0 mm 5 mps 765 mmHg 88%
    01:00 +12°C° 0 mm 5 mps 765 mmHg 88%
    02:00 +12°C° 0 mm 5 mps 764 mmHg 88%
    03:00 +12°C° 0 mm 5 mps 764 mmHg 87%
    04:00 +10°C° 0 mm 5 mps 764 mmHg 88%
    05:00 +11°C° 0 mm 4 mps 763 mmHg 89%
    06:00 +11°C° 0 mm 4 mps 763 mmHg 90%
    07:00 +13°C° 0 mm 4 mps 763 mmHg 85%
    08:00 +15°C° 0 mm 4 mps 763 mmHg 79%
    09:00 +19°C° 0 mm 3 mps 762 mmHg 74%
    10:00 +20°C° 0 mm 3 mps 762 mmHg 68%
    11:00 +21°C° 0 mm 3 mps 762 mmHg 63%
    12:00 +23°C° 0 mm 2 mps 761 mmHg 57%
    13:00 +23°C° 0 mm 2 mps 761 mmHg 56%
    14:00 +24°C° 0 mm 2 mps 760 mmHg 55%
    15:00 +24°C° 0 mm 2 mps 760 mmHg 55%
    16:00 +23°C° 0.1 mm 2 mps 759 mmHg 62%
    17:00 +20°C° 0.1 mm 3 mps 759 mmHg 69%
    18:00 +19°C° 0.1 mm 3 mps 758 mmHg 76%
    19:00 +18°C° 0 mm 2 mps 758 mmHg 80%
    20:00 +16°C° 0 mm 2 mps 758 mmHg 84%
    21:00 +15°C° 0 mm 1 mps 758 mmHg 88%
    22:00 +14°C° 0 mm 1 mps 758 mmHg 89%
    23:00 +14°C° 0 mm 1 mps 757 mmHg 89%

    22 April, Monday

    Time Temperature Precipitation Wind Pressure Humidity
    00:00 +14°C° 0 mm 1 mps 757 mmHg 90%
    01:00 +13°C° 0 mm 1 mps 756 mmHg 90%
    02:00 +13°C° 0 mm 1 mps 755 mmHg 90%
    03:00 +13°C° 0 mm 1 mps 754 mmHg 91%
    04:00 +13°C° 0 mm 1 mps 754 mmHg 91%
    05:00 +13°C° 0 mm 1 mps 754 mmHg 92%
    06:00 +13°C° 0 mm 2 mps 754 mmHg 93%
    07:00 +14°C° 0 mm 2 mps 753 mmHg 87%
    08:00 +16°C° 0 mm 2 mps 753 mmHg 81%
    09:00 +17°C° 0 mm 3 mps 753 mmHg 74%
    10:00 +18°C° 0 mm 3 mps 752 mmHg 69%
    11:00 +19°C° 0 mm 3 mps 752 mmHg 64%
    12:00 +19°C° 0 mm 3 mps 752 mmHg 59%
    13:00 +19°C° 0 mm 3 mps 751 mmHg 58%
    14:00 +19°C° 0 mm 3 mps 750 mmHg 58%
    15:00 +19°C° 0 mm 3 mps 750 mmHg 57%
    16:00 +18°C° 0 mm 2 mps 749 mmHg 61%
    17:00 +17°C° 0 mm 2 mps 749 mmHg 66%
    18:00 +18°C° 0 mm 1 mps 749 mmHg 71%
    19:00 +15°C° 0 mm 1 mps 749 mmHg 74%
    20:00 +13°C° 0 mm 1 mps 749 mmHg 77%
    21:00 +11°C° 0 mm 0 mps 749 mmHg 80%
    22:00 +12°C° 0 mm 1 mps 748 mmHg 79%
    23:00 +12°C° 0 mm 1 mps 748 mmHg 79%

    23 April, Tuesday

    Time Temperature Precipitation Wind Pressure Humidity
    00:00 +12°C° 0 mm 1 mps 748 mmHg 79%
    01:00 +12°C° 0 mm 2 mps 747 mmHg 79%
    02:00 +10°C° 0 mm 2 mps 747 mmHg 80%
    03:00 +10°C° 0 mm 3 mps 746 mmHg 81%
    04:00 +10°C° 0 mm 3 mps 746 mmHg 84%
    05:00 +11°C° 0 mm 4 mps 746 mmHg 87%
    06:00 +10°C° 0 mm 5 mps 745 mmHg 90%
    07:00 +12°C° 0 mm 5 mps 745 mmHg 86%
    08:00 +13°C° 0 mm 5 mps 745 mmHg 81%
    09:00 +15°C° 0 mm 6 mps 745 mmHg 76%
    10:00 +16°C° 0 mm 6 mps 745 mmHg 74%
    11:00 +16°C° 0 mm 6 mps 745 mmHg 71%
    12:00 +17°C° 0 mm 7 mps 745 mmHg 69%
    13:00 +17°C° 0 mm 6 mps 745 mmHg 71%
    14:00 +17°C° 0 mm 6 mps 746 mmHg 73%
    15:00 +16°C° 0 mm 5 mps 746 mmHg 75%
    16:00 +15°C° 0 mm 5 mps 746 mmHg 79%
    17:00 +15°C° 0 mm 4 mps 746 mmHg 83%
    18:00 +14°C° 0 mm 4 mps 747 mmHg 88%
    19:00 +13°C° 0 mm 4 mps 747 mmHg 90%
    20:00 +11°C° 0 mm 3 mps 748 mmHg 93%
    21:00 +10°C° 0 mm 3 mps 748 mmHg 96%
    22:00 +10°C° 0 mm 2 mps 749 mmHg 95%
    23:00 +10°C° 0 mm 2 mps 749 mmHg 94%

    24 April, Wednesday

    Time Temperature Precipitation Wind Pressure Humidity
    00:00 +10°C° 0 mm 2 mps 749 mmHg 93%
    01:00 +9°C° 0 mm 2 mps 749 mmHg 93%
    02:00 +9°C° 0 mm 1 mps 749 mmHg 93%
    03:00 +9°C° 0 mm 1 mps 749 mmHg 93%
    04:00 +9°C° 0 mm 1 mps 749 mmHg 94%
    05:00 +8°C° 0 mm 2 mps 749 mmHg 95%
    06:00 +8°C° 0 mm 2 mps 749 mmHg 96%
    07:00 +10°C° 0 mm 3 mps 749 mmHg 90%
    08:00 +12°C° 0 mm 4 mps 749 mmHg 84%
    09:00 +14°C° 0 mm 4 mps 749 mmHg 78%
    10:00 +14°C° 0.2 mm 5 mps 749 mmHg 75%
    11:00 +15°C° 0.2 mm 6 mps 749 mmHg 71%
    12:00 +15°C° 0.2 mm 7 mps 749 mmHg 68%
    13:00 +15°C° 0.1 mm 8 mps 749 mmHg 69%
    14:00 +15°C° 0.1 mm 8 mps 749 mmHg 70%
    15:00 +13°C° 0.1 mm 9 mps 749 mmHg 71%
    16:00 +13°C° 0 mm 9 mps 749 mmHg 74%
    17:00 +12°C° 0 mm 8 mps 749 mmHg 77%
    18:00 +11°C° 0 mm 8 mps 749 mmHg 80%
    19:00 +10°C° 0 mm 7 mps 749 mmHg 84%
    20:00 +10°C° 0 mm 7 mps 749 mmHg 89%
    21:00 +9°C° 0 mm 6 mps 750 mmHg 93%
    22:00 +9°C° 0 mm 6 mps 750 mmHg 92%
    23:00 +8°C° 0 mm 7 mps 749 mmHg 91%
    Show more